Location: Malcolm X Square
(37.7810°N, 122.4297°W)
Time: 22:12:28
(UTC+00:00)

Cosmos 1470 Rocket - Pass Details

Date: 13 April 2024
Orbit: 601 x 629 km, 82.5° (Epoch: 21 May)

Event Time Altitude Azimuth Distance (km) Brightness Sun altitude
Rises 12:23:11 0° 354° (N) 2,888 7.2 -14.6°
Reaches altitude 10° 12:25:25 10° 356° (N) 1,983 6.4 -14.2°
Maximum altitude 12:29:48 78° 82° (E) 637 3.7 -13.4°
Drops below altitude 10° 12:34:13 10° 170° (S) 1,985 6.0 -12.6°
Sets 12:36:26 0° 171° (S) 2,891 6.9 -12.2°
